Previsão horária em Ploskovo

Hoje, 6 Março, Sábado

Tempo Temperatura Precipitação Vento Pressão Humidade
00:00 -14°C° 0.1 mm 2 m/s 743 mmHg 96%
01:00 -14°C° 0.1 mm 2 m/s 743 mmHg 96%
02:00 -12°C° 0.1 mm 1 m/s 744 mmHg 96%
03:00 -12°C° 0 mm 1 m/s 744 mmHg 96%
04:00 -13°C° 0 mm 1 m/s 744 mmHg 97%
05:00 -13°C° 0 mm 1 m/s 744 mmHg 97%
06:00 -13°C° 0 mm 1 m/s 744 mmHg 96%
07:00 -12°C° 0 mm 1 m/s 744 mmHg 96%
08:00 -14°C° 0 mm 2 m/s 745 mmHg 95%
09:00 -13°C° 0 mm 2 m/s 744 mmHg 93%
10:00 -10°C° 0 mm 2 m/s 744 mmHg 90%
11:00 -9°C° 0 mm 2 m/s 744 mmHg 87%
12:00 -8°C° 0 mm 2 m/s 744 mmHg 85%
13:00 -7°C° 0 mm 2 m/s 743 mmHg 82%
14:00 -8°C° 0 mm 3 m/s 743 mmHg 79%
15:00 -9°C° 0 mm 3 m/s 742 mmHg 82%
16:00 -9°C° 0 mm 2 m/s 742 mmHg 85%
17:00 -10°C° 0 mm 2 m/s 741 mmHg 88%
18:00 -10°C° 0 mm 3 m/s 740 mmHg 87%
19:00 -10°C° 0 mm 3 m/s 740 mmHg 86%
20:00 -11°C° 0 mm 4 m/s 739 mmHg 85%
21:00 -11°C° 0 mm 4 m/s 738 mmHg 87%
22:00 -11°C° 0 mm 5 m/s 736 mmHg 89%
23:00 -11°C° 0 mm 6 m/s 735 mmHg 91%

Amanhã, 7 Março, Domingo

Tempo Temperatura Precipitação Vento Pressão Humidade
00:00 -11°C° 0.3 mm 6 m/s 733 mmHg 92%
01:00 -10°C° 0.3 mm 6 m/s 732 mmHg 92%
02:00 -10°C° 0.3 mm 6 m/s 731 mmHg 93%
03:00 -9°C° 0.5 mm 6 m/s 730 mmHg 93%
04:00 -8°C° 0.5 mm 6 m/s 728 mmHg 93%
05:00 -8°C° 0.5 mm 6 m/s 727 mmHg 94%
06:00 -6°C° 0.4 mm 6 m/s 726 mmHg 94%
07:00 -6°C° 0.4 mm 5 m/s 726 mmHg 94%
08:00 -6°C° 0.4 mm 5 m/s 725 mmHg 94%
09:00 -6°C° 0.4 mm 5 m/s 725 mmHg 90%
10:00 -7°C° 0.4 mm 4 m/s 725 mmHg 85%
11:00 -7°C° 0.4 mm 4 m/s 725 mmHg 81%
12:00 -7°C° 0.1 mm 4 m/s 725 mmHg 79%
13:00 -8°C° 0.1 mm 4 m/s 725 mmHg 78%
14:00 -8°C° 0.1 mm 5 m/s 726 mmHg 77%
15:00 -8°C° 0 mm 3 m/s 726 mmHg 79%
16:00 -9°C° 0 mm 2 m/s 726 mmHg 82%
17:00 -9°C° 0 mm 1 m/s 726 mmHg 84%
18:00 -10°C° 0 mm 1 m/s 726 mmHg 85%
19:00 -11°C° 0 mm 1 m/s 726 mmHg 85%
20:00 -12°C° 0 mm 1 m/s 727 mmHg 86%
21:00 -13°C° 0 mm 1 m/s 727 mmHg 87%
22:00 -13°C° 0 mm 1 m/s 727 mmHg 88%
23:00 -13°C° 0 mm 1 m/s 727 mmHg 89%

Depois de amanhã, 8 Março, Segunda-feira

Tempo Temperatura Precipitação Vento Pressão Humidade
00:00 -16°C° 0 mm 2 m/s 727 mmHg 90%
01:00 -16°C° 0 mm 2 m/s 728 mmHg 91%
02:00 -16°C° 0 mm 2 m/s 728 mmHg 92%
03:00 -16°C° 0.1 mm 3 m/s 729 mmHg 92%
04:00 -15°C° 0.1 mm 3 m/s 729 mmHg 93%
05:00 -15°C° 0.1 mm 4 m/s 729 mmHg 93%
06:00 -15°C° 0.1 mm 4 m/s 730 mmHg 92%
07:00 -14°C° 0.1 mm 4 m/s 731 mmHg 92%
08:00 -13°C° 0.1 mm 5 m/s 731 mmHg 91%
09:00 -13°C° 0.1 mm 5 m/s 732 mmHg 90%
10:00 -13°C° 0.1 mm 5 m/s 733 mmHg 89%
11:00 -13°C° 0.1 mm 5 m/s 733 mmHg 87%
12:00 -13°C° 0.1 mm 5 m/s 734 mmHg 87%
13:00 -13°C° 0.1 mm 5 m/s 735 mmHg 86%
14:00 -13°C° 0.1 mm 5 m/s 736 mmHg 85%
15:00 -14°C° 0 mm 5 m/s 736 mmHg 87%
16:00 -14°C° 0 mm 4 m/s 737 mmHg 88%
17:00 -15°C° 0 mm 4 m/s 737 mmHg 90%
18:00 -17°C° 0 mm 4 m/s 738 mmHg 91%
19:00 -18°C° 0 mm 4 m/s 739 mmHg 92%
20:00 -19°C° 0 mm 4 m/s 740 mmHg 93%
21:00 -19°C° 0 mm 3 m/s 740 mmHg 94%
22:00 -21°C° 0 mm 3 m/s 741 mmHg 95%
23:00 -22°C° 0 mm 3 m/s 741 mmHg 96%

9 Março, Terça-feira

Tempo Temperatura Precipitação Vento Pressão Humidade
00:00 -23°C° 0 mm 3 m/s 742 mmHg 97%
01:00 -24°C° 0 mm 3 m/s 742 mmHg 97%
02:00 -25°C° 0 mm 3 m/s 743 mmHg 98%
03:00 -25°C° 0 mm 2 m/s 743 mmHg 98%
04:00 -26°C° 0 mm 2 m/s 743 mmHg 98%
05:00 -27°C° 0 mm 2 m/s 744 mmHg 98%
06:00 -26°C° 0 mm 2 m/s 744 mmHg 97%
07:00 -26°C° 0 mm 2 m/s 744 mmHg 96%
08:00 -25°C° 0 mm 2 m/s 745 mmHg 95%
09:00 -24°C° 0 mm 2 m/s 745 mmHg 92%
10:00 -21°C° 0 mm 2 m/s 745 mmHg 89%
11:00 -19°C° 0 mm 2 m/s 745 mmHg 86%
12:00 -19°C° 0 mm 2 m/s 746 mmHg 85%
13:00 -18°C° 0 mm 2 m/s 746 mmHg 84%
14:00 -17°C° 0 mm 2 m/s 746 mmHg 83%
15:00 -18°C° 0 mm 2 m/s 746 mmHg 86%
16:00 -17°C° 0 mm 1 m/s 746 mmHg 89%
17:00 -18°C° 0 mm 1 m/s 746 mmHg 92%
18:00 -19°C° 0 mm 1 m/s 746 mmHg 94%
19:00 -21°C° 0 mm 1 m/s 747 mmHg 95%
20:00 -22°C° 0 mm 1 m/s 747 mmHg 96%
21:00 -23°C° 0 mm 1 m/s 747 mmHg 97%
22:00 -23°C° 0 mm 1 m/s 748 mmHg 97%
23:00 -27°C° 0 mm 2 m/s 748 mmHg 98%

10 Março, Quarta-feira

Tempo Temperatura Precipitação Vento Pressão Humidade
00:00 -25°C° 0 mm 1 m/s 748 mmHg 98%
01:00 -27°C° 0 mm 1 m/s 749 mmHg 98%
02:00 -27°C° 0 mm 1 m/s 749 mmHg 98%
03:00 -30°C° 0 mm 2 m/s 749 mmHg 98%
04:00 -30°C° 0 mm 2 m/s 749 mmHg 98%
05:00 -31°C° 0 mm 2 m/s 750 mmHg 97%
06:00 -30°C° 0 mm 2 m/s 750 mmHg 97%
07:00 -29°C° 0 mm 2 m/s 751 mmHg 96%
08:00 -28°C° 0 mm 2 m/s 751 mmHg 95%
09:00 -26°C° 0 mm 2 m/s 751 mmHg 91%
10:00 -25°C° 0 mm 2 m/s 751 mmHg 87%
11:00 -20°C° 0 mm 1 m/s 752 mmHg 83%
12:00 -19°C° 0 mm 1 m/s 752 mmHg 81%
13:00 -18°C° 0 mm 1 m/s 752 mmHg 79%
14:00 -17°C° 0 mm 1 m/s 751 mmHg 77%
15:00 -18°C° 0 mm 1 m/s 751 mmHg 82%
16:00 -19°C° 0 mm 1 m/s 751 mmHg 86%
17:00 -20°C° 0 mm 1 m/s 751 mmHg 90%
18:00 -20°C° 0 mm 1 m/s 751 mmHg 90%
19:00 -21°C° 0 mm 0 m/s 752 mmHg 91%
20:00 -22°C° 0 mm 0 m/s 752 mmHg 91%
21:00 -23°C° 0 mm 0 m/s 752 mmHg 91%
22:00 -23°C° 0 mm 0 m/s 752 mmHg 90%
23:00 -24°C° 0 mm 0 m/s 752 mmHg 90%

11 Março, Quinta-feira

Tempo Temperatura Precipitação Vento Pressão Humidade
00:00 -24°C° 0 mm 0 m/s 752 mmHg 90%
01:00 -24°C° 0 mm 0 m/s 752 mmHg 90%
02:00 -25°C° 0 mm 1 m/s 752 mmHg 90%
03:00 -25°C° 0 mm 1 m/s 752 mmHg 90%
04:00 -25°C° 0 mm 1 m/s 752 mmHg 90%
05:00 -25°C° 0 mm 1 m/s 752 mmHg 90%
06:00 -24°C° 0 mm 1 m/s 752 mmHg 90%
07:00 -23°C° 0 mm 1 m/s 752 mmHg 89%
08:00 -22°C° 0 mm 1 m/s 752 mmHg 88%
09:00 -23°C° 0 mm 2 m/s 752 mmHg 85%
10:00 -20°C° 0 mm 2 m/s 751 mmHg 83%
11:00 -19°C° 0 mm 3 m/s 751 mmHg 80%
12:00 -18°C° 0 mm 3 m/s 751 mmHg 79%
13:00 -18°C° 0 mm 4 m/s 750 mmHg 78%
14:00 -17°C° 0 mm 4 m/s 750 mmHg 76%
15:00 -18°C° 0 mm 4 m/s 749 mmHg 78%
16:00 -18°C° 0 mm 4 m/s 748 mmHg 81%
17:00 -19°C° 0 mm 4 m/s 747 mmHg 83%
18:00 -19°C° 0 mm 4 m/s 747 mmHg 84%
19:00 -20°C° 0 mm 5 m/s 746 mmHg 85%
20:00 -21°C° 0 mm 5 m/s 745 mmHg 85%
21:00 -22°C° 0 mm 6 m/s 744 mmHg 84%
22:00 -22°C° 0 mm 6 m/s 743 mmHg 83%
23:00 -22°C° 0 mm 6 m/s 743 mmHg 82%
Mostrar mais

Necessitamos do seu Consentimento

A Meteoprog e os seus Fornecedores de Serviços podem armazenar e aceder a dados pessoais como cookies, identificadores do dispositivo ou outras tecnologias semelhantes existentes no seu dispositivo e processar estes dados para personalizar conteúdos e anúncios, assim como funcionalidades nas redes sociais e análise de tráfego.

  • Armazenar e/ou aceder a informações no seu dispositivo

    Os cookies, identificadores do dispositivo ou outras informações podem ser armazenados ou acedidos no seu dispositivo, para os fins acima indicados.

  • Anúncios e conteúdos personalizados, medição de anúncios e conteúdos, dados sobre o público-alvo e desenvolvimento de produtos

    Os anúncios e os conteúdos podem ser personalizados com base num perfil. Podem ser adicionados dados adicionais para uma maior personalização dos anúncios e dos conteúdos. A eficácia dos anúncios e dos conteúdos pode ser medida. Podem ser obtidas informações sobre o público que visualizou os anúncios e os conteúdos. Estes dados podem ser usados para desenvolver ou melhorar sistemas, softwares ou a experiência do utilizador.

Ao clicar em "Eu concordo”, permitirá o uso de cookies, identificadores do dispositivo e web beacons mencionados ou outras tecnologias semelhantes. As configurações do navegador do seu dispositivo podem ser alteradas.

Para certos fins, podem ser invocados interesses legítimos ao invés de consentimento. Pode ler mais informação sobre este assunto na nossa Política de Privacidade e Cookies.